Location: Arcusa
(42.3167°N, 0.0833°W)
Time: 18:23:15
(UTC+00:00)

STARLINK-1042 - Pass Details

Date: 25 January 2020
Orbit: 548 x 551 km, 53.0° (Epoch: 16 February)

Event Time Altitude Azimuth Distance (km) Brightness Sun altitude
Rises 06:13:24 0° 222° (SW) 2,702 6.9 -12.6°
Reaches altitude 10° 06:15:38 10° 219° (SW) 1,813 6.0 -12.2°
Maximum altitude 06:19:42 61° 139° (SE) 623 4.1 -11.4°
Drops below altitude 10° 06:23:48 10° 59° (ENE) 1,829 6.9 -10.7°
Sets 06:26:03 0° 56° (NE) 2,723 7.8 -10.3°
